Year,Month,Day,Hour,Minute,Value (Times are PST for temperature in C)
2014,09,30,00,00,13.60
2014,09,30,00,01,13.60
2014,09,30,00,02,13.60
2014,09,30,00,03,13.60
2014,09,30,00,04,13.60
2014,09,30,00,05,13.60
2014,09,30,00,06,13.50
2014,09,30,00,07,13.50
2014,09,30,00,08,13.50
2014,09,30,00,09,13.40
2014,09,30,00,10,13.40
2014,09,30,00,11,13.40
2014,09,30,00,12,13.40
2014,09,30,00,13,13.30
2014,09,30,00,14,13.30
2014,09,30,00,15,13.30
2014,09,30,00,16,13.30
2014,09,30,00,17,13.30
2014,09,30,00,18,13.30
2014,09,30,00,19,13.30
2014,09,30,00,20,13.30
2014,09,30,00,21,13.30
2014,09,30,00,22,13.20
2014,09,30,00,23,13.20
2014,09,30,00,24,13.20
2014,09,30,00,25,13.20
2014,09,30,00,26,13.20
2014,09,30,00,27,13.20
2014,09,30,00,28,13.20
2014,09,30,00,29,13.20
2014,09,30,00,30,13.10
2014,09,30,00,31,13.10
2014,09,30,00,32,13.10
2014,09,30,00,33,13.10
2014,09,30,00,34,13.10
2014,09,30,00,35,13.10
2014,09,30,00,36,13.10
2014,09,30,00,37,13.10
2014,09,30,00,38,13.10
2014,09,30,00,39,13.00
2014,09,30,00,40,13.00
2014,09,30,00,41,13.00
2014,09,30,00,42,13.00
2014,09,30,00,43,13.00
2014,09,30,00,44,12.90
2014,09,30,00,45,12.90
2014,09,30,00,46,12.90
2014,09,30,00,47,12.90
2014,09,30,00,48,12.90
2014,09,30,00,49,12.80
2014,09,30,00,50,12.80
2014,09,30,00,51,12.80
2014,09,30,00,52,12.80
2014,09,30,00,53,12.80
2014,09,30,00,54,12.80
2014,09,30,00,55,12.80
2014,09,30,00,56,12.80
2014,09,30,00,57,12.80
2014,09,30,00,58,12.80
2014,09,30,00,59,12.80
2014,09,30,01,00,12.80
2014,09,30,01,01,12.80
2014,09,30,01,02,12.80
2014,09,30,01,03,12.80
2014,09,30,01,04,12.80
2014,09,30,01,05,12.80
2014,09,30,01,06,12.80
2014,09,30,01,07,12.80
2014,09,30,01,08,12.90
2014,09,30,01,09,12.90
2014,09,30,01,10,12.90
2014,09,30,01,11,12.90
2014,09,30,01,12,12.90
2014,09,30,01,13,12.90
2014,09,30,01,14,12.90
2014,09,30,01,15,13.00
2014,09,30,01,16,13.00
2014,09,30,01,17,13.00
2014,09,30,01,18,13.10
2014,09,30,01,19,13.10
2014,09,30,01,20,13.10
2014,09,30,01,21,13.10
2014,09,30,01,22,13.10
2014,09,30,01,23,13.10
2014,09,30,01,24,13.10
2014,09,30,01,25,13.10
2014,09,30,01,26,13.10
2014,09,30,01,27,13.10
2014,09,30,01,28,13.10
2014,09,30,01,29,13.10
2014,09,30,01,30,13.10
2014,09,30,01,31,13.10
2014,09,30,01,32,13.10
2014,09,30,01,33,13.10
2014,09,30,01,34,13.10
2014,09,30,01,35,13.10
2014,09,30,01,36,13.10
2014,09,30,01,37,13.10
2014,09,30,01,38,13.10
2014,09,30,01,39,13.10
2014,09,30,01,40,13.10
2014,09,30,01,41,13.10
2014,09,30,01,42,13.10
2014,09,30,01,43,13.10
2014,09,30,01,44,13.10
2014,09,30,01,45,13.10
2014,09,30,01,46,13.10
2014,09,30,01,47,13.10
2014,09,30,01,48,13.10
2014,09,30,01,49,13.10
2014,09,30,01,50,13.10
2014,09,30,01,51,13.10
2014,09,30,01,52,13.00
2014,09,30,01,53,13.00
2014,09,30,01,54,13.00
2014,09,30,01,55,13.00
2014,09,30,01,56,13.00
2014,09,30,01,57,13.00
2014,09,30,01,58,13.00
2014,09,30,01,59,13.00
2014,09,30,02,00,12.90
2014,09,30,02,01,12.90
2014,09,30,02,02,12.90
2014,09,30,02,03,12.90
2014,09,30,02,04,12.90
2014,09,30,02,05,12.90
2014,09,30,02,06,12.90
2014,09,30,02,07,13.00
2014,09,30,02,08,13.00
2014,09,30,02,09,13.00
2014,09,30,02,10,13.00
2014,09,30,02,11,13.00
2014,09,30,02,12,13.00
2014,09,30,02,13,13.00
2014,09,30,02,14,13.00
2014,09,30,02,15,13.00
2014,09,30,02,16,13.00
2014,09,30,02,17,13.00
2014,09,30,02,18,13.00
2014,09,30,02,19,13.00
2014,09,30,02,20,13.00
2014,09,30,02,21,13.00
2014,09,30,02,22,13.00
2014,09,30,02,23,13.00
2014,09,30,02,24,13.00
2014,09,30,02,25,13.10
2014,09,30,02,26,13.10
2014,09,30,02,27,13.10
2014,09,30,02,28,13.10
2014,09,30,02,29,13.10
2014,09,30,02,30,13.10
2014,09,30,02,31,13.10
2014,09,30,02,32,13.10
2014,09,30,02,33,13.10
2014,09,30,02,34,13.10
2014,09,30,02,35,13.00
2014,09,30,02,36,13.00
2014,09,30,02,37,13.00
2014,09,30,02,38,13.10
2014,09,30,02,39,13.10
2014,09,30,02,40,13.10
2014,09,30,02,41,13.10
2014,09,30,02,42,13.10
2014,09,30,02,43,13.10
2014,09,30,02,44,13.10
2014,09,30,02,45,13.10
2014,09,30,02,46,13.10
2014,09,30,02,47,13.00
2014,09,30,02,48,13.00
2014,09,30,02,49,13.00
2014,09,30,02,50,13.00
2014,09,30,02,51,13.00
2014,09,30,02,52,13.00
2014,09,30,02,53,12.90
2014,09,30,02,54,12.90
2014,09,30,02,55,12.90
2014,09,30,02,56,12.90
2014,09,30,02,57,12.90
2014,09,30,02,58,12.90
2014,09,30,02,59,12.90
2014,09,30,03,00,12.90
2014,09,30,03,01,12.90
2014,09,30,03,02,12.90
2014,09,30,03,03,12.90
2014,09,30,03,04,12.90
2014,09,30,03,05,12.80
2014,09,30,03,06,12.80
2014,09,30,03,07,12.70
2014,09,30,03,08,12.70
2014,09,30,03,09,12.60
2014,09,30,03,10,12.60
2014,09,30,03,11,12.50
2014,09,30,03,12,12.50
2014,09,30,03,13,12.50
2014,09,30,03,14,12.40
2014,09,30,03,15,12.40
2014,09,30,03,16,12.40
2014,09,30,03,17,12.40
2014,09,30,03,18,12.40
2014,09,30,03,19,12.40
2014,09,30,03,20,12.40
2014,09,30,03,21,12.30
2014,09,30,03,22,12.30
2014,09,30,03,23,12.30
2014,09,30,03,24,12.30
2014,09,30,03,25,12.30
2014,09,30,03,26,12.30
2014,09,30,03,27,12.30
2014,09,30,03,28,12.30
2014,09,30,03,29,12.30
2014,09,30,03,30,12.30
2014,09,30,03,31,12.30
2014,09,30,03,32,12.30
2014,09,30,03,33,12.30
2014,09,30,03,34,12.30
2014,09,30,03,35,12.30
2014,09,30,03,36,12.30
2014,09,30,03,37,12.30
2014,09,30,03,38,12.30
2014,09,30,03,39,12.30
2014,09,30,03,40,12.30
2014,09,30,03,41,12.30
2014,09,30,03,42,12.30
2014,09,30,03,43,12.30
2014,09,30,03,44,12.30
2014,09,30,03,45,12.30
2014,09,30,03,46,12.30
2014,09,30,03,47,12.30
2014,09,30,03,48,12.30
2014,09,30,03,49,12.30
2014,09,30,03,50,12.30
2014,09,30,03,51,12.30
2014,09,30,03,52,12.30
2014,09,30,03,53,12.30
2014,09,30,03,54,12.30
2014,09,30,03,55,12.30
2014,09,30,03,56,12.30
2014,09,30,03,57,12.30
2014,09,30,03,58,12.30
2014,09,30,03,59,12.30
2014,09,30,04,00,12.30
2014,09,30,04,01,12.30
2014,09,30,04,02,12.30
2014,09,30,04,03,12.30
2014,09,30,04,04,12.30
2014,09,30,04,05,12.30
2014,09,30,04,06,12.30
2014,09,30,04,07,12.40
2014,09,30,04,08,12.40
2014,09,30,04,09,12.40
2014,09,30,04,10,12.40
2014,09,30,04,11,12.40
2014,09,30,04,12,12.40
2014,09,30,04,13,12.40
2014,09,30,04,14,12.40
2014,09,30,04,15,12.40
2014,09,30,04,16,12.40
2014,09,30,04,17,12.40
2014,09,30,04,18,12.40
2014,09,30,04,19,12.40
2014,09,30,04,20,12.30
2014,09,30,04,21,12.30
2014,09,30,04,22,12.30
2014,09,30,04,23,12.30
2014,09,30,04,24,12.30
2014,09,30,04,25,12.30
2014,09,30,04,26,12.30
2014,09,30,04,27,12.30
2014,09,30,04,28,12.30
2014,09,30,04,29,12.30
2014,09,30,04,30,12.30
2014,09,30,04,31,12.30
2014,09,30,04,32,12.30
2014,09,30,04,33,12.30
2014,09,30,04,34,12.30
2014,09,30,04,35,12.30
2014,09,30,04,36,12.30
2014,09,30,04,37,12.30
2014,09,30,04,38,12.30
2014,09,30,04,39,12.30
2014,09,30,04,40,12.30
2014,09,30,04,41,12.30
2014,09,30,04,42,12.30
2014,09,30,04,43,12.30
2014,09,30,04,44,12.30
2014,09,30,04,45,12.30
2014,09,30,04,46,12.30
2014,09,30,04,47,12.30
2014,09,30,04,48,12.20
2014,09,30,04,49,12.20
2014,09,30,04,50,12.20
2014,09,30,04,51,12.20
2014,09,30,04,52,12.20
2014,09,30,04,53,12.20
2014,09,30,04,54,12.20
2014,09,30,04,55,12.20
2014,09,30,04,56,12.20
2014,09,30,04,57,12.20
2014,09,30,04,58,12.20
2014,09,30,04,59,12.20
2014,09,30,05,00,12.20
2014,09,30,05,01,12.20
2014,09,30,05,02,12.20
2014,09,30,05,03,12.20
2014,09,30,05,04,12.20
2014,09,30,05,05,12.20
2014,09,30,05,06,12.20
2014,09,30,05,07,12.20
2014,09,30,05,08,12.20
2014,09,30,05,09,12.20
2014,09,30,05,10,12.20
2014,09,30,05,11,12.20
2014,09,30,05,12,12.20
2014,09,30,05,13,12.20
2014,09,30,05,14,12.20
2014,09,30,05,15,12.20
2014,09,30,05,16,12.20
2014,09,30,05,17,12.20
2014,09,30,05,18,12.30
2014,09,30,05,19,12.30
2014,09,30,05,20,12.30
2014,09,30,05,21,12.30
2014,09,30,05,22,12.40
2014,09,30,05,23,12.40
2014,09,30,05,24,12.40
2014,09,30,05,25,12.40
2014,09,30,05,26,12.40
2014,09,30,05,27,12.40
2014,09,30,05,28,12.50
2014,09,30,05,29,12.50
2014,09,30,05,30,12.50
2014,09,30,05,31,12.50
2014,09,30,05,32,12.50
2014,09,30,05,33,12.50
2014,09,30,05,34,12.60
2014,09,30,05,35,12.60
2014,09,30,05,36,12.60
2014,09,30,05,37,12.60
2014,09,30,05,38,12.60
2014,09,30,05,39,12.60
2014,09,30,05,40,12.60
2014,09,30,05,41,12.60
2014,09,30,05,42,12.60
2014,09,30,05,43,12.60
2014,09,30,05,44,12.60
2014,09,30,05,45,12.60
2014,09,30,05,46,12.60
2014,09,30,05,47,12.60
2014,09,30,05,48,12.60
2014,09,30,05,49,12.70
2014,09,30,05,50,12.70
2014,09,30,05,51,12.70
2014,09,30,05,52,12.60
2014,09,30,05,53,12.60
2014,09,30,05,54,12.60
2014,09,30,05,55,12.60
2014,09,30,05,56,12.60
2014,09,30,05,57,12.60
2014,09,30,05,58,12.50
2014,09,30,05,59,12.50
2014,09,30,06,00,12.50
2014,09,30,06,01,12.50
2014,09,30,06,02,12.40
2014,09,30,06,03,12.40
2014,09,30,06,04,12.40
2014,09,30,06,05,12.30
2014,09,30,06,06,12.30
2014,09,30,06,07,12.30
2014,09,30,06,08,12.30
2014,09,30,06,09,12.20
2014,09,30,06,10,12.20
2014,09,30,06,11,12.10
2014,09,30,06,12,12.10
2014,09,30,06,13,12.00
2014,09,30,06,14,12.00
2014,09,30,06,15,11.90
2014,09,30,06,16,11.80
2014,09,30,06,17,11.80
2014,09,30,06,18,11.80
2014,09,30,06,19,11.70
2014,09,30,06,20,11.70
2014,09,30,06,21,11.60
2014,09,30,06,22,11.60
2014,09,30,06,23,11.60
2014,09,30,06,24,11.50
2014,09,30,06,25,11.50
2014,09,30,06,26,11.40
2014,09,30,06,27,11.40
2014,09,30,06,28,11.30
2014,09,30,06,29,11.30
2014,09,30,06,30,11.30
2014,09,30,06,31,11.20
2014,09,30,06,32,11.20
2014,09,30,06,33,11.20
2014,09,30,06,34,11.10
2014,09,30,06,35,11.10
2014,09,30,06,36,11.10
2014,09,30,06,37,11.00
2014,09,30,06,38,11.00
2014,09,30,06,39,11.00
2014,09,30,06,40,11.00
2014,09,30,06,41,11.00
2014,09,30,06,42,11.10
2014,09,30,06,43,11.10
2014,09,30,06,44,11.10
2014,09,30,06,45,11.10
2014,09,30,06,46,11.10
2014,09,30,06,47,11.10
2014,09,30,06,48,11.10
2014,09,30,06,49,11.00
2014,09,30,06,50,11.00
2014,09,30,06,51,11.00
2014,09,30,06,52,11.00
2014,09,30,06,53,11.00
2014,09,30,06,54,10.90
2014,09,30,06,55,10.90
2014,09,30,06,56,10.90
2014,09,30,06,57,10.90
2014,09,30,06,58,10.90
2014,09,30,06,59,10.90
2014,09,30,07,00,10.90
2014,09,30,07,01,10.90
2014,09,30,07,02,10.90
2014,09,30,07,03,10.90
2014,09,30,07,04,11.00
2014,09,30,07,05,11.00
2014,09,30,07,06,11.00
2014,09,30,07,07,11.00
2014,09,30,07,08,11.00
2014,09,30,07,09,11.00
2014,09,30,07,10,11.00
2014,09,30,07,11,11.10
2014,09,30,07,12,11.10
2014,09,30,07,13,11.10
2014,09,30,07,14,11.10
2014,09,30,07,15,11.10
2014,09,30,07,16,11.10
2014,09,30,07,17,11.10
2014,09,30,07,18,11.10
2014,09,30,07,19,11.20
2014,09,30,07,20,11.20
2014,09,30,07,21,11.20
2014,09,30,07,22,11.20
2014,09,30,07,23,11.20
2014,09,30,07,24,11.20
2014,09,30,07,25,11.20
2014,09,30,07,26,11.20
2014,09,30,07,27,11.20
2014,09,30,07,28,11.20
2014,09,30,07,29,11.20
2014,09,30,07,30,11.20
2014,09,30,07,31,11.20
2014,09,30,07,32,11.20
2014,09,30,07,33,11.20
2014,09,30,07,34,11.20
2014,09,30,07,35,11.20
2014,09,30,07,36,11.20
2014,09,30,07,37,11.30
2014,09,30,07,38,11.30
2014,09,30,07,39,11.30
2014,09,30,07,40,11.30
2014,09,30,07,41,11.30
2014,09,30,07,42,11.30
2014,09,30,07,43,11.30
2014,09,30,07,44,11.40
2014,09,30,07,45,11.40
2014,09,30,07,46,11.40
2014,09,30,07,47,11.40
2014,09,30,07,48,11.40
2014,09,30,07,49,11.40
2014,09,30,07,50,11.40
2014,09,30,07,51,11.40
2014,09,30,07,52,11.40
2014,09,30,07,53,11.50
2014,09,30,07,54,11.50
2014,09,30,07,55,11.50
2014,09,30,07,56,11.50
2014,09,30,07,57,11.50
2014,09,30,07,58,11.50
2014,09,30,07,59,11.60
2014,09,30,08,00,11.60
2014,09,30,08,01,11.60
2014,09,30,08,02,11.60
2014,09,30,08,03,11.60
2014,09,30,08,04,11.60
2014,09,30,08,05,11.60
2014,09,30,08,06,11.70
2014,09,30,08,07,11.70
2014,09,30,08,08,11.70
2014,09,30,08,09,11.70
2014,09,30,08,10,11.70
2014,09,30,08,11,11.70
2014,09,30,08,12,11.70
2014,09,30,08,13,11.80
2014,09,30,08,14,11.80
2014,09,30,08,15,11.80
2014,09,30,08,16,11.80
2014,09,30,08,17,11.80
2014,09,30,08,18,11.90
2014,09,30,08,19,11.90
2014,09,30,08,20,11.90
2014,09,30,08,21,12.00
2014,09,30,08,22,12.00
2014,09,30,08,23,12.10
2014,09,30,08,24,12.10
2014,09,30,08,25,12.10
2014,09,30,08,26,12.20
2014,09,30,08,27,12.20
2014,09,30,08,28,12.30
2014,09,30,08,29,12.30
2014,09,30,08,30,12.40
2014,09,30,08,31,12.40
2014,09,30,08,32,12.50
2014,09,30,08,33,12.50
2014,09,30,08,34,12.60
2014,09,30,08,35,12.70
2014,09,30,08,36,12.80
2014,09,30,08,37,12.80
2014,09,30,08,38,12.90
2014,09,30,08,39,13.00
2014,09,30,08,40,13.00
2014,09,30,08,41,13.10
2014,09,30,08,42,13.20
2014,09,30,08,43,13.20
2014,09,30,08,44,13.30
2014,09,30,08,45,13.30
2014,09,30,08,46,13.40
2014,09,30,08,47,13.40
2014,09,30,08,48,13.50
2014,09,30,08,49,13.50
2014,09,30,08,50,13.60
2014,09,30,08,51,13.60
2014,09,30,08,52,13.60
2014,09,30,08,53,13.70
2014,09,30,08,54,13.70
2014,09,30,08,55,13.80
2014,09,30,08,56,13.80
2014,09,30,08,57,13.80
2014,09,30,08,58,13.90
2014,09,30,08,59,13.90
2014,09,30,09,00,13.90
2014,09,30,09,01,14.00
2014,09,30,09,02,14.00
2014,09,30,09,03,14.00
2014,09,30,09,04,14.10
2014,09,30,09,05,14.10
2014,09,30,09,06,14.10
2014,09,30,09,07,14.10
2014,09,30,09,08,14.20
2014,09,30,09,09,14.20
2014,09,30,09,10,14.20
2014,09,30,09,11,14.20
2014,09,30,09,12,14.20
2014,09,30,09,13,14.30
2014,09,30,09,14,14.30
2014,09,30,09,15,14.30
2014,09,30,09,16,14.30
2014,09,30,09,17,14.30
2014,09,30,09,18,14.30
2014,09,30,09,19,14.40
2014,09,30,09,20,14.40
2014,09,30,09,21,14.50
2014,09,30,09,22,14.50
2014,09,30,09,23,14.60
2014,09,30,09,24,14.60
2014,09,30,09,25,14.70
2014,09,30,09,26,14.70
2014,09,30,09,27,14.80
2014,09,30,09,28,14.80
2014,09,30,09,29,14.80
2014,09,30,09,30,14.80
2014,09,30,09,31,14.90
2014,09,30,09,32,14.90
2014,09,30,09,33,14.90
2014,09,30,09,34,14.90
2014,09,30,09,35,14.90
2014,09,30,09,36,15.00
2014,09,30,09,37,15.00
2014,09,30,09,38,15.00
2014,09,30,09,39,15.00
2014,09,30,09,40,15.10
2014,09,30,09,41,15.10
2014,09,30,09,42,15.10
2014,09,30,09,43,15.10
2014,09,30,09,44,15.10
2014,09,30,09,45,15.20
2014,09,30,09,46,15.20
2014,09,30,09,47,15.20
2014,09,30,09,48,15.20
2014,09,30,09,49,15.30
2014,09,30,09,50,15.30
2014,09,30,09,51,15.30
2014,09,30,09,52,15.40
2014,09,30,09,53,15.40
2014,09,30,09,54,15.40
2014,09,30,09,55,15.50
2014,09,30,09,56,15.50
2014,09,30,09,57,15.60
2014,09,30,09,58,15.60
2014,09,30,09,59,15.60
2014,09,30,10,00,15.60
2014,09,30,10,01,15.60
2014,09,30,10,02,15.70
2014,09,30,10,03,15.70
2014,09,30,10,04,15.70
2014,09,30,10,05,15.70
2014,09,30,10,06,15.70
2014,09,30,10,07,15.80
2014,09,30,10,08,15.80
2014,09,30,10,09,15.80
2014,09,30,10,10,15.80
2014,09,30,10,11,15.90
2014,09,30,10,12,15.90
2014,09,30,10,13,15.90
2014,09,30,10,14,16.00
2014,09,30,10,15,16.00
2014,09,30,10,16,16.10
2014,09,30,10,17,16.10
2014,09,30,10,18,16.10
2014,09,30,10,19,16.20
2014,09,30,10,20,16.20
2014,09,30,10,21,16.20
2014,09,30,10,22,16.20
2014,09,30,10,23,16.20
2014,09,30,10,24,16.30
2014,09,30,10,25,16.30
2014,09,30,10,26,16.20
2014,09,30,10,27,16.20
2014,09,30,10,28,16.30
2014,09,30,10,29,16.30
2014,09,30,10,30,16.30
2014,09,30,10,31,16.30
2014,09,30,10,32,16.30
2014,09,30,10,33,16.30
2014,09,30,10,34,16.30
2014,09,30,10,35,16.30
2014,09,30,10,36,16.30
2014,09,30,10,37,16.40
2014,09,30,10,38,16.40
2014,09,30,10,39,16.40
2014,09,30,10,40,16.40
2014,09,30,10,41,16.40
2014,09,30,10,42,16.50
2014,09,30,10,43,16.50
2014,09,30,10,44,16.50
2014,09,30,10,45,16.60
2014,09,30,10,46,16.60
2014,09,30,10,47,16.60
2014,09,30,10,48,16.60
2014,09,30,10,49,16.60
2014,09,30,10,50,16.60
2014,09,30,10,51,16.60
2014,09,30,10,52,16.70
2014,09,30,10,53,16.70
2014,09,30,10,54,16.70
2014,09,30,10,55,16.70
2014,09,30,10,56,16.80
2014,09,30,10,57,16.80
2014,09,30,10,58,16.80
2014,09,30,10,59,16.90
2014,09,30,11,00,16.90
2014,09,30,11,01,16.90
2014,09,30,11,02,16.90
2014,09,30,11,03,16.90
2014,09,30,11,04,16.90
2014,09,30,11,05,16.90
2014,09,30,11,06,16.90
2014,09,30,11,07,16.90
2014,09,30,11,08,16.90
2014,09,30,11,09,16.90
2014,09,30,11,10,16.90
2014,09,30,11,11,16.90
2014,09,30,11,12,16.90
2014,09,30,11,13,17.00
2014,09,30,11,14,17.00
2014,09,30,11,15,17.10
2014,09,30,11,16,17.10
2014,09,30,11,17,17.20
2014,09,30,11,18,17.20
2014,09,30,11,19,17.30
2014,09,30,11,20,17.30
2014,09,30,11,21,17.30
2014,09,30,11,22,17.30
2014,09,30,11,23,17.30
2014,09,30,11,24,17.40
2014,09,30,11,25,17.40
2014,09,30,11,26,17.40
2014,09,30,11,27,17.40
2014,09,30,11,28,17.40
2014,09,30,11,29,17.40
2014,09,30,11,30,17.40
2014,09,30,11,31,17.40
2014,09,30,11,32,17.50
2014,09,30,11,33,17.50
2014,09,30,11,34,17.50
2014,09,30,11,35,17.50
2014,09,30,11,36,17.50
2014,09,30,11,37,17.50
2014,09,30,11,38,17.50
2014,09,30,11,39,17.50
2014,09,30,11,40,17.50
2014,09,30,11,41,17.50
2014,09,30,11,42,17.50
2014,09,30,11,43,17.50
2014,09,30,11,44,17.50
2014,09,30,11,45,17.50
2014,09,30,11,46,17.50
2014,09,30,11,47,17.50
2014,09,30,11,48,17.50
2014,09,30,11,49,17.60
2014,09,30,11,50,17.60
2014,09,30,11,51,17.70
2014,09,30,11,52,17.80
2014,09,30,11,53,17.80
2014,09,30,11,54,17.80
2014,09,30,11,55,17.90
2014,09,30,11,56,17.90
2014,09,30,11,57,17.90
2014,09,30,11,58,18.00
2014,09,30,11,59,18.10
2014,09,30,12,00,18.20
2014,09,30,12,01,18.30
2014,09,30,12,02,18.30
2014,09,30,12,03,18.40
2014,09,30,12,04,18.40
2014,09,30,12,05,18.40
2014,09,30,12,06,18.40
2014,09,30,12,07,18.40
2014,09,30,12,08,18.40
2014,09,30,12,09,18.30
2014,09,30,12,10,18.30
2014,09,30,12,11,18.30
2014,09,30,12,12,18.30
2014,09,30,12,13,18.20
2014,09,30,12,14,18.20
2014,09,30,12,15,18.20
2014,09,30,12,16,18.20
2014,09,30,12,17,18.20
2014,09,30,12,18,18.20
2014,09,30,12,19,18.20
2014,09,30,12,20,18.20
2014,09,30,12,21,18.30
2014,09,30,12,22,18.30
2014,09,30,12,23,18.30
2014,09,30,12,24,18.30
2014,09,30,12,25,18.30
2014,09,30,12,26,18.30
2014,09,30,12,27,18.30
2014,09,30,12,28,18.20
2014,09,30,12,29,18.20
2014,09,30,12,30,18.20
2014,09,30,12,31,18.20
2014,09,30,12,32,18.20
2014,09,30,12,33,18.20
2014,09,30,12,34,18.20
2014,09,30,12,35,18.20
2014,09,30,12,36,18.20
2014,09,30,12,37,18.20
2014,09,30,12,38,18.20
2014,09,30,12,39,18.10
2014,09,30,12,40,18.10
2014,09,30,12,41,18.10
2014,09,30,12,42,18.10
2014,09,30,12,43,18.10
2014,09,30,12,44,18.10
2014,09,30,12,45,18.10
2014,09,30,12,46,18.10
2014,09,30,12,47,18.10
2014,09,30,12,48,18.10
2014,09,30,12,49,18.10
2014,09,30,12,50,18.10
2014,09,30,12,51,18.10
2014,09,30,12,52,18.10
2014,09,30,12,53,18.00
2014,09,30,12,54,18.00
2014,09,30,12,55,18.00
2014,09,30,12,56,18.00
2014,09,30,12,57,18.00
2014,09,30,12,58,18.00
2014,09,30,12,59,18.00
2014,09,30,13,00,18.10
2014,09,30,13,01,18.10
2014,09,30,13,02,18.10
2014,09,30,13,03,18.10
2014,09,30,13,04,18.10
2014,09,30,13,05,18.20
2014,09,30,13,06,18.20
2014,09,30,13,07,18.20
2014,09,30,13,08,18.20
2014,09,30,13,09,18.20
2014,09,30,13,10,18.10
2014,09,30,13,11,18.10
2014,09,30,13,12,18.10
2014,09,30,13,13,18.10
2014,09,30,13,14,18.10
2014,09,30,13,15,18.10
2014,09,30,13,16,18.10
2014,09,30,13,17,18.00
2014,09,30,13,18,18.00
2014,09,30,13,19,18.00
2014,09,30,13,20,17.90
2014,09,30,13,21,17.90
2014,09,30,13,22,17.90
2014,09,30,13,23,17.90
2014,09,30,13,24,17.80
2014,09,30,13,25,17.80
2014,09,30,13,26,17.80
2014,09,30,13,27,17.70
2014,09,30,13,28,17.70
2014,09,30,13,29,17.60
2014,09,30,13,30,17.50
2014,09,30,13,31,17.40
2014,09,30,13,32,17.40
2014,09,30,13,33,17.30
2014,09,30,13,34,17.20
2014,09,30,13,35,17.10
2014,09,30,13,36,17.10
2014,09,30,13,37,16.90
2014,09,30,13,38,16.80
2014,09,30,13,39,16.70
2014,09,30,13,40,16.60
2014,09,30,13,41,16.40
2014,09,30,13,42,16.30
2014,09,30,13,43,16.20
2014,09,30,13,44,16.10
2014,09,30,13,45,16.00
2014,09,30,13,46,15.90
2014,09,30,13,47,15.80
2014,09,30,13,48,15.70
2014,09,30,13,49,15.60
2014,09,30,13,50,15.60
2014,09,30,13,51,15.50
2014,09,30,13,52,15.40
2014,09,30,13,53,15.30
2014,09,30,13,54,15.20
2014,09,30,13,55,15.20
2014,09,30,13,56,15.10
2014,09,30,13,57,15.00
2014,09,30,13,58,15.00
2014,09,30,13,59,15.00
2014,09,30,14,00,14.90
2014,09,30,14,01,14.90
2014,09,30,14,02,14.90
2014,09,30,14,03,14.80
2014,09,30,14,04,14.80
2014,09,30,14,05,14.80
2014,09,30,14,06,14.80
2014,09,30,14,07,14.80
2014,09,30,14,08,14.80
2014,09,30,14,09,14.80
2014,09,30,14,10,14.80
2014,09,30,14,11,14.70
2014,09,30,14,12,14.80
2014,09,30,14,13,14.80
2014,09,30,14,14,14.80
2014,09,30,14,15,14.80
2014,09,30,14,16,14.90
2014,09,30,14,17,14.90
2014,09,30,14,18,15.00
2014,09,30,14,19,15.00
2014,09,30,14,20,15.10
2014,09,30,14,21,15.10
2014,09,30,14,22,15.20
2014,09,30,14,23,15.20
2014,09,30,14,24,15.20
2014,09,30,14,25,15.30
2014,09,30,14,26,15.30
2014,09,30,14,27,15.30
2014,09,30,14,28,15.30
2014,09,30,14,29,15.40
2014,09,30,14,30,15.40
2014,09,30,14,31,15.40
2014,09,30,14,32,15.50
2014,09,30,14,33,15.50
2014,09,30,14,34,15.50
2014,09,30,14,35,15.50
2014,09,30,14,36,15.60
2014,09,30,14,37,15.60
2014,09,30,14,38,15.60
2014,09,30,14,39,15.60
2014,09,30,14,40,15.60
2014,09,30,14,41,15.60
2014,09,30,14,42,15.60
2014,09,30,14,43,15.50
2014,09,30,14,44,15.50
2014,09,30,14,45,15.50
2014,09,30,14,46,15.40
2014,09,30,14,47,15.40
2014,09,30,14,48,15.40
2014,09,30,14,49,15.30
2014,09,30,14,50,15.30
2014,09,30,14,51,15.30
2014,09,30,14,52,15.20
2014,09,30,14,53,15.20
2014,09,30,14,54,15.20
2014,09,30,14,55,15.20
2014,09,30,14,56,15.20
2014,09,30,14,57,15.20
2014,09,30,14,58,15.20
2014,09,30,14,59,15.20
2014,09,30,15,00,15.30
2014,09,30,15,01,15.30
2014,09,30,15,02,15.40
2014,09,30,15,03,15.40
2014,09,30,15,04,15.50
2014,09,30,15,05,15.60
2014,09,30,15,06,15.70
2014,09,30,15,07,15.70
2014,09,30,15,08,15.80
2014,09,30,15,09,15.80
2014,09,30,15,10,15.90
2014,09,30,15,11,15.90
2014,09,30,15,12,15.90
2014,09,30,15,13,15.90
2014,09,30,15,14,15.90
2014,09,30,15,15,15.90
2014,09,30,15,16,15.90
2014,09,30,15,17,15.90
2014,09,30,15,18,15.90
2014,09,30,15,19,15.90
2014,09,30,15,20,15.80
2014,09,30,15,21,15.80
2014,09,30,15,22,15.80
2014,09,30,15,23,15.80
2014,09,30,15,24,15.80
2014,09,30,15,25,15.80
2014,09,30,15,26,15.80
2014,09,30,15,27,15.80
2014,09,30,15,28,15.80
2014,09,30,15,29,15.80
2014,09,30,15,30,15.80
2014,09,30,15,31,15.90
2014,09,30,15,32,15.90
2014,09,30,15,33,15.90
2014,09,30,15,34,15.90
2014,09,30,15,35,15.90
2014,09,30,15,36,16.00
2014,09,30,15,37,16.00
2014,09,30,15,38,16.00
2014,09,30,15,39,16.00
2014,09,30,15,40,16.00
2014,09,30,15,41,16.00
2014,09,30,15,42,16.00
2014,09,30,15,43,16.00
2014,09,30,15,44,16.10
2014,09,30,15,45,16.10
2014,09,30,15,46,16.10
2014,09,30,15,47,16.10
2014,09,30,15,48,16.10
2014,09,30,15,49,16.10
2014,09,30,15,50,16.10
2014,09,30,15,51,16.10
2014,09,30,15,52,16.10
2014,09,30,15,53,16.20
2014,09,30,15,54,16.20
2014,09,30,15,55,16.20
2014,09,30,15,56,16.20
2014,09,30,15,57,16.20
2014,09,30,15,58,16.20
2014,09,30,15,59,16.20
2014,09,30,16,00,16.20
2014,09,30,16,01,16.10
2014,09,30,16,02,16.10
2014,09,30,16,03,16.10
2014,09,30,16,04,16.10
2014,09,30,16,05,16.00
2014,09,30,16,06,16.00
2014,09,30,16,07,15.90
2014,09,30,16,08,15.90
2014,09,30,16,09,15.90
2014,09,30,16,10,15.90
2014,09,30,16,11,15.90
2014,09,30,16,12,15.80
2014,09,30,16,13,15.80
2014,09,30,16,14,15.80
2014,09,30,16,15,15.80
2014,09,30,16,16,15.80
2014,09,30,16,17,15.80
2014,09,30,16,18,15.80
2014,09,30,16,19,15.70
2014,09,30,16,20,15.70
2014,09,30,16,21,15.70
2014,09,30,16,22,15.70
2014,09,30,16,23,15.70
2014,09,30,16,24,15.70
2014,09,30,16,25,15.70
2014,09,30,16,26,15.70
2014,09,30,16,27,15.70
2014,09,30,16,28,15.70
2014,09,30,16,29,15.70
2014,09,30,16,30,15.70
2014,09,30,16,31,15.80
2014,09,30,16,32,15.80
2014,09,30,16,33,15.80
2014,09,30,16,34,15.80
2014,09,30,16,35,15.80
2014,09,30,16,36,15.80
2014,09,30,16,37,15.80
2014,09,30,16,38,15.80
2014,09,30,16,39,15.80
2014,09,30,16,40,15.80
2014,09,30,16,41,15.80
2014,09,30,16,42,15.80
2014,09,30,16,43,15.90
2014,09,30,16,44,15.90
2014,09,30,16,45,15.90
2014,09,30,16,46,15.90
2014,09,30,16,47,16.00
2014,09,30,16,48,16.00
2014,09,30,16,49,16.00
2014,09,30,16,50,16.00
2014,09,30,16,51,16.00
2014,09,30,16,52,16.10
2014,09,30,16,53,16.10
2014,09,30,16,54,16.10
2014,09,30,16,55,16.10
2014,09,30,16,56,16.10
2014,09,30,16,57,16.10
2014,09,30,16,58,16.10
2014,09,30,16,59,16.10
2014,09,30,17,00,16.10
2014,09,30,17,01,16.20
2014,09,30,17,02,16.20
2014,09,30,17,03,16.20
2014,09,30,17,04,16.20
2014,09,30,17,05,16.20
2014,09,30,17,06,16.20
2014,09,30,17,07,16.20
2014,09,30,17,08,16.20
2014,09,30,17,09,16.20
2014,09,30,17,10,16.20
2014,09,30,17,11,16.20
2014,09,30,17,12,16.20
2014,09,30,17,13,16.20
2014,09,30,17,14,16.20
2014,09,30,17,15,16.20
2014,09,30,17,16,16.20
2014,09,30,17,17,16.20
2014,09,30,17,18,16.10
2014,09,30,17,19,16.10